TimeCDT,TemperatureF,Dew PointF,Humidity,Sea Level PressureIn,VisibilityMPH,Wind Direction,Wind SpeedMPH,Gust SpeedMPH,PrecipitationIn,Events,Conditions,WindDirDegrees,DateUTC
12:15 AM,57.2,48.2,72,29.86,10.0,SSE,6.9,-,N/A,,Unknown,160,2013-09-22 05:15:00
12:35 AM,57.2,48.2,72,29.86,10.0,SSE,8.1,-,N/A,,Unknown,150,2013-09-22 05:35:00
12:55 AM,57.2,46.4,67,29.86,10.0,South,6.9,-,N/A,,Unknown,170,2013-09-22 05:55:00
1:15 AM,55.4,46.4,72,29.85,10.0,South,6.9,-,N/A,,Unknown,170,2013-09-22 06:15:00
1:35 AM,55.4,48.2,77,29.86,10.0,South,6.9,-,N/A,,Unknown,180,2013-09-22 06:35:00
1:55 AM,55.4,48.2,77,29.86,10.0,South,8.1,-,N/A,,Unknown,170,2013-09-22 06:55:00
2:15 AM,57.2,48.2,72,29.85,10.0,South,6.9,-,N/A,,Unknown,170,2013-09-22 07:15:00
2:35 AM,55.4,48.2,77,29.85,10.0,South,5.8,-,N/A,,Unknown,170,2013-09-22 07:35:00
2:55 AM,55.4,48.2,77,29.85,10.0,South,3.5,-,N/A,,Unknown,170,2013-09-22 07:55:00
3:15 AM,55.4,46.4,72,29.85,10.0,Calm,Calm,-,N/A,,Unknown,0,2013-09-22 08:15:00
3:35 AM,53.6,48.2,82,29.85,10.0,South,4.6,-,N/A,,Unknown,170,2013-09-22 08:35:00
3:55 AM,55.4,48.2,77,29.84,10.0,South,5.8,-,N/A,,Unknown,180,2013-09-22 08:55:00
4:15 AM,55.4,48.2,77,29.84,10.0,South,6.9,-,N/A,,Unknown,170,2013-09-22 09:15:00
4:35 AM,55.4,48.2,77,29.84,10.0,South,8.1,-,N/A,,Unknown,180,2013-09-22 09:35:00
4:55 AM,55.4,48.2,77,29.83,10.0,South,8.1,-,N/A,,Unknown,180,2013-09-22 09:55:00
5:15 AM,55.4,48.2,77,29.83,10.0,South,8.1,-,N/A,,Unknown,170,2013-09-22 10:15:00
5:35 AM,55.4,48.2,77,29.84,10.0,South,6.9,-,N/A,,Unknown,180,2013-09-22 10:35:00
5:55 AM,55.4,48.2,77,29.84,10.0,South,4.6,-,N/A,,Unknown,180,2013-09-22 10:55:00
6:15 AM,55.4,48.2,77,29.84,10.0,South,6.9,-,N/A,,Unknown,180,2013-09-22 11:15:00
6:35 AM,55.4,48.2,77,29.84,10.0,South,6.9,-,N/A,,Unknown,170,2013-09-22 11:35:00
6:55 AM,55.4,48.2,77,29.84,10.0,South,9.2,-,N/A,,Unknown,180,2013-09-22 11:55:00
7:15 AM,55.4,48.2,77,29.84,10.0,South,8.1,-,N/A,,Unknown,180,2013-09-22 12:15:00
7:35 AM,55.4,48.2,77,29.84,10.0,South,5.8,-,N/A,,Unknown,180,2013-09-22 12:35:00
7:55 AM,55.4,50.0,82,29.85,10.0,South,8.1,-,N/A,,Unknown,170,2013-09-22 12:55:00
8:15 AM,57.2,50.0,77,29.85,10.0,South,6.9,-,N/A,,Unknown,170,2013-09-22 13:15:00
8:35 AM,59.0,51.8,77,29.85,10.0,South,6.9,-,N/A,,Unknown,180,2013-09-22 13:35:00
8:55 AM,62.6,51.8,68,29.85,10.0,South,9.2,-,N/A,,Unknown,190,2013-09-22 13:55:00
9:15 AM,62.6,51.8,68,29.85,10.0,South,11.5,-,N/A,,Unknown,190,2013-09-22 14:15:00
9:35 AM,64.4,51.8,64,29.85,10.0,SSW,11.5,18.4,N/A,,Unknown,200,2013-09-22 14:35:00
9:55 AM,66.2,51.8,60,29.85,10.0,SSW,16.1,19.6,N/A,,Unknown,200,2013-09-22 14:55:00
10:15 AM,69.8,51.8,53,29.85,10.0,SSW,12.7,20.7,N/A,,Unknown,210,2013-09-22 15:15:00
10:35 AM,71.6,51.8,50,29.85,10.0,South,13.8,20.7,N/A,,Unknown,190,2013-09-22 15:35:00
10:55 AM,71.6,51.8,50,29.85,10.0,SSW,16.1,23.0,N/A,,Unknown,210,2013-09-22 15:55:00
11:15 AM,73.4,51.8,47,29.84,10.0,South,19.6,-,N/A,,Unknown,190,2013-09-22 16:15:00
11:35 AM,73.4,51.8,47,29.84,10.0,SSW,16.1,23.0,N/A,,Unknown,200,2013-09-22 16:35:00
11:55 AM,75.2,51.8,44,29.83,10.0,SSW,16.1,20.7,N/A,,Unknown,200,2013-09-22 16:55:00
12:15 PM,77.0,50.0,39,29.83,10.0,South,18.4,25.3,N/A,,Unknown,190,2013-09-22 17:15:00
12:35 PM,77.0,51.8,41,29.82,10.0,South,13.8,27.6,N/A,,Unknown,190,2013-09-22 17:35:00
12:55 PM,78.8,51.8,39,29.81,10.0,South,16.1,26.5,N/A,,Unknown,180,2013-09-22 17:55:00
1:15 PM,78.8,48.2,34,29.81,10.0,South,19.6,25.3,N/A,,Unknown,180,2013-09-22 18:15:00
1:35 PM,78.8,50.0,36,29.80,10.0,South,17.3,26.5,N/A,,Unknown,190,2013-09-22 18:35:00
1:55 PM,80.6,48.2,32,29.79,10.0,South,13.8,25.3,N/A,,Unknown,180,2013-09-22 18:55:00
2:15 PM,80.6,46.4,30,29.78,10.0,South,21.9,27.6,N/A,,Unknown,190,2013-09-22 19:15:00
2:35 PM,80.6,44.6,28,29.78,10.0,South,21.9,28.8,N/A,,Unknown,190,2013-09-22 19:35:00
2:55 PM,82.4,44.6,26,29.78,10.0,SSW,21.9,27.6,N/A,,Unknown,200,2013-09-22 19:55:00
3:15 PM,80.6,44.6,28,29.78,10.0,South,17.3,26.5,N/A,,Unknown,180,2013-09-22 20:15:00
3:35 PM,80.6,46.4,30,29.78,10.0,South,18.4,27.6,N/A,,Unknown,180,2013-09-22 20:35:00
3:55 PM,80.6,46.4,30,29.77,10.0,South,19.6,27.6,N/A,,Unknown,180,2013-09-22 20:55:00
4:15 PM,80.6,44.6,28,29.76,10.0,South,18.4,29.9,N/A,,Unknown,180,2013-09-22 21:15:00
4:35 PM,80.6,44.6,28,29.76,10.0,South,16.1,25.3,N/A,,Unknown,180,2013-09-22 21:35:00
4:55 PM,80.6,42.8,26,29.76,10.0,South,16.1,32.2,N/A,,Unknown,180,2013-09-22 21:55:00
5:15 PM,80.6,42.8,26,29.76,10.0,South,23.0,26.5,N/A,,Unknown,180,2013-09-22 22:15:00
5:35 PM,80.6,44.6,28,29.76,10.0,South,19.6,24.2,N/A,,Unknown,180,2013-09-22 22:35:00
5:55 PM,78.8,44.6,30,29.76,10.0,South,20.7,25.3,N/A,,Unknown,170,2013-09-22 22:55:00
6:15 PM,78.8,46.4,32,29.76,10.0,South,17.3,24.2,N/A,,Unknown,170,2013-09-22 23:15:00
6:35 PM,77.0,46.4,34,29.77,10.0,South,11.5,21.9,N/A,,Unknown,170,2013-09-22 23:35:00
6:55 PM,75.2,48.2,38,29.77,10.0,SSE,13.8,-,N/A,,Unknown,160,2013-09-22 23:55:00
7:15 PM,73.4,46.4,38,29.77,10.0,South,12.7,17.3,N/A,,Unknown,170,2013-09-23 00:15:00
7:35 PM,71.6,46.4,41,29.77,10.0,SSE,12.7,17.3,N/A,,Unknown,160,2013-09-23 00:35:00
7:55 PM,71.6,48.2,43,29.78,10.0,South,12.7,-,N/A,,Unknown,170,2013-09-23 00:55:00
8:15 PM,69.8,48.2,46,29.78,10.0,SSE,9.2,-,N/A,,Unknown,160,2013-09-23 01:15:00
8:35 PM,66.2,48.2,52,29.79,10.0,SSE,9.2,-,N/A,,Unknown,160,2013-09-23 01:35:00
8:55 PM,66.2,50.0,56,29.79,10.0,SSE,12.7,17.3,N/A,,Unknown,160,2013-09-23 01:55:00
9:15 PM,68.0,48.2,49,29.80,10.0,South,13.8,18.4,N/A,,Unknown,170,2013-09-23 02:15:00
9:35 PM,66.2,48.2,52,29.80,10.0,SSE,11.5,18.4,N/A,,Unknown,160,2013-09-23 02:35:00
9:55 PM,64.4,50.0,59,29.80,10.0,SSE,8.1,-,N/A,,Unknown,160,2013-09-23 02:55:00
10:15 PM,64.4,50.0,59,29.80,10.0,South,11.5,16.1,N/A,,Unknown,170,2013-09-23 03:15:00
10:35 PM,64.4,50.0,59,29.81,10.0,SSE,11.5,-,N/A,,Unknown,160,2013-09-23 03:35:00
10:55 PM,64.4,50.0,59,29.81,10.0,South,11.5,16.1,N/A,,Unknown,170,2013-09-23 03:55:00
11:15 PM,64.4,50.0,59,29.81,10.0,SSE,11.5,-,N/A,,Unknown,160,2013-09-23 04:15:00
11:35 PM,62.6,51.8,68,29.82,10.0,SSE,9.2,-,N/A,,Unknown,160,2013-09-23 04:35:00
11:55 PM,62.6,51.8,68,29.82,10.0,SSE,10.4,-,N/A,,Unknown,150,2013-09-23 04:55:00